Wind_Speed
34 35 35 36 37 39 40 41 42 43 43 44 46 48 49 51 52 53 54 56 57 59 60 62 64 64 65 65 63 61 60 58 56 55 54 52 51 49
35 35 35 37 38 39 41 42 43 44 44 45 47 48 50 51 53 54 56 57 58 60 62 63 65 65 65 64 61 60 59 57 55 54 52 51 49 47
36 35 36 37 39 40 41 42 43 44 45 46 47 48 50 52 54 55 57 58 59 61 63 64 65 65 64 61 59 58 57 56 54 52 50 49 47 46
36 36 37 38 39 40 41 42 43 44 45 46 47 49 51 52 54 56 57 59 60 62 63 65 65 64 62 60 59 58 56 54 52 51 50 47 45 44
36 36 37 39 39 40 41 42 43 43 45 46 47 49 51 53 55 57 58 60 61 63 65 65 64 62 60 58 57 57 55 53 51 50 48 46 44 43
36 37 38 38 39 39 41 41 42 44 45 46 47 49 51 53 55 57 58 60 61 63 65 64 62 60 59 57 57 55 53 51 50 49 47 45 43 41
36 37 37 38 38 39 40 41 42 43 45 46 48 50 52 54 56 57 58 59 61 63 63 62 60 58 57 56 55 53 52 50 49 48 46 43 41 39
36 36 37 37 38 38 39 41 42 43 44 46 48 50 52 54 56 57 58 59 60 61 61 60 59 57 57 55 54 52 50 49 47 46 44 41 39 36
35 36 36 37 37 38 40 41 42 42 44 46 48 50 52 54 56 57 58 59 59 59 59 59 58 57 56 55 53 50 48 46 45 44 42 39 37 34
35 36 36 36 37 38 39 40 40 41 44 46 48 50 52 53 55 56 58 58 59 59 59 58 57 57 56 53 51 48 46 45 44 43 40 37 34 31
35 35 35 35 36 37 38 38 40 42 44 46 48 50 51 53 55 56 57 57 58 58 58 58 56 55 54 52 49 47 45 44 43 41 38 34 31 29
35 35 34 34 35 36 37 38 39 42 44 46 48 49 51 53 55 56 56 56 57 57 57 57 55 53 50 50 48 46 45 44 42 39 35 31 29 27
34 33 33 33 34 35 36 38 39 42 44 46 47 49 50 53 55 55 55 56 56 57 57 56 53 51 50 48 47 46 44 42 40 36 32 29 27 25
32 31 32 33 34 34 36 37 40 42 44 45 47 48 50 53 54 54 55 56 56 56 56 54 51 49 48 46 45 45 43 40 37 33 30 28 26 24
31 31 31 32 33 34 35 38 40 41 43 45 46 48 50 52 54 54 55 56 57 56 55 52 50 49 48 45 43 42 40 38 35 31 29 27 25 23
30 30 30 31 32 33 36 37 39 41 43 44 46 48 50 52 53 54 54 55 55 55 53 51 49 47 46 45 42 40 38 36 33 30 28 26 24 22
28 29 29 30 32 33 35 37 39 41 42 44 46 48 50 51 52 53 53 54 53 52 51 50 49 47 45 43 41 39 37 35 32 29 27 25 23 21
27 28 29 30 31 33 35 36 39 40 42 44 46 48 50 51 52 53 53 51 51 50 49 48 47 46 45 42 39 38 36 34 31 29 26 24 23 21
26 27 29 30 31 33 34 36 38 40 42 44 45 47 49 50 51 52 51 50 49 49 48 47 45 44 43 41 38 36 35 33 30 28 26 23 22 21
26 27 28 29 31 32 34 36 38 40 42 43 44 46 48 49 50 50 49 47 47 47 47 46 44 42 41 39 37 35 33 32 29 27 24 22 21 20
26 27 28 29 31 32 33 36 38 40 41 42 44 46 47 48 49 49 47 45 45 46 46 44 43 41 39 38 36 34 32 30 28 25 23 21 20 19
26 26 28 29 30 32 34 36 38 39 40 42 43 45 46 47 48 46 45 44 45 45 45 44 42 40 38 36 35 33 31 29 27 24 22 20 18 17
26 27 28 29 30 32 34 35 37 38 40 42 43 45 46 47 46 44 43 43 44 44 44 42 40 38 36 35 33 32 30 28 25 23 21 19 17 16
Wind_Direction
285 289 291 294 297 300 302 305 307 309 310 312 313 314 315 316 317 318 318 319 319 319 319 319 320 320 319 319 318 317 316 314 313 311 309 307 304 302
284 288 291 293 297 300 302 304 307 309 311 312 314 315 316 317 318 319 319 319 320 320 320 320 321 320 320 320 319 319 318 316 315 313 311 309 307 304
283 287 290 293 296 299 301 304 307 309 311 313 314 315 316 318 319 319 320 320 320 321 321 321 322 321 321 321 321 320 319 318 317 315 314 311 308 306
282 285 288 292 295 298 301 304 307 309 311 313 315 316 317 319 319 320 320 321 321 321 322 322 322 322 322 322 321 321 320 319 318 317 316 314 312 309
282 285 288 292 294 297 301 304 306 309 312 314 315 317 318 319 320 321 321 322 322 323 323 323 323 323 323 323 322 322 321 320 319 318 317 316 313 311
281 285 288 291 294 297 301 304 307 310 312 314 316 317 318 320 321 321 322 322 323 323 324 325 325 325 324 324 324 323 322 321 320 320 319 318 315 314
281 284 287 291 294 298 302 305 308 310 312 314 316 318 319 321 321 322 322 323 324 324 325 325 326 326 325 325 325 324 323 322 322 322 321 320 318 317
280 283 287 291 294 298 301 305 308 310 313 315 317 319 320 321 322 323 324 324 324 325 326 326 327 327 327 326 326 325 324 324 324 324 323 322 321 320
280 283 287 291 294 298 302 305 307 311 314 315 318 320 321 322 323 324 325 325 326 327 328 328 328 328 327 327 327 326 326 326 326 325 325 324 323 322
279 283 287 291 295 298 302 305 308 312 314 317 319 320 321 323 324 325 326 326 327 329 329 329 329 328 328 329 329 328 328 327 327 326 326 325 325 324
278 283 287 291 295 298 302 306 309 312 315 317 319 321 323 324 325 326 327 328 329 330 330 330 330 330 330 330 330 329 329 328 328 327 327 327 327 327
279 283 287 292 295 300 304 307 309 313 316 319 320 322 324 325 326 327 328 328 329 330 331 331 331 331 331 330 330 330 330 329 329 329 329 329 329 329
279 283 287 292 296 301 304 307 310 314 317 320 321 323 325 327 327 328 329 329 330 331 332 332 332 332 332 331 331 331 332 331 331 331 330 330 330 329
279 282 287 292 297 301 305 308 312 315 318 320 322 324 326 327 328 329 329 330 331 332 333 334 334 333 333 333 332 332 333 334 333 332 332 332 332 330
278 283 288 293 298 302 305 309 313 316 319 321 322 324 326 328 329 329 330 331 332 333 334 335 335 335 335 334 334 334 335 335 335 334 334 334 334 334
279 284 289 294 299 303 306 310 314 317 319 321 323 325 327 328 329 330 331 332 333 334 335 336 336 336 336 336 336 336 337 337 337 337 335 335 335 335
280 286 291 295 300 304 308 311 315 318 320 322 323 325 328 329 330 331 331 332 334 335 336 337 337 337 337 338 338 338 339 340 339 339 337 336 335 336
282 287 292 296 301 305 309 312 316 318 321 322 324 326 328 329 330 331 332 333 334 336 337 337 337 337 338 339 339 339 339 340 340 339 338 336 337 337
283 288 293 298 303 306 309 313 316 319 321 323 325 327 329 331 331 332 333 334 335 337 338 339 338 338 338 339 339 340 340 340 340 339 339 338 339 339
285 290 294 299 303 307 311 314 317 321 323 324 326 328 330 331 332 333 334 335 336 338 339 340 340 339 339 339 340 341 342 342 342 341 341 341 342 343
285 289 295 299 304 307 312 315 319 321 323 325 327 329 331 332 332 333 334 336 338 339 339 340 341 340 340 341 342 342 343 344 344 344 343 343 344 345
285 289 295 300 304 308 313 316 319 321 323 326 328 330 331 332 333 333 335 336 338 339 340 341 341 342 342 343 343 343 344 345 345 346 345 345 345 346
285 289 295 300 305 310 313 316 319 322 324 326 328 330 332 333 333 334 334 335 337 339 340 341 342 343 343 343 344 344 345 345 346 347 348 349 349 350
Height
5751 5750 5747 5745 5742 5738 5735 5730 5727 5722 5717 5711 5704 5698 5691 5684 5676 5668 5660 5652 5643 5633 5624 5614 5604 5594 5583 5572 5561 5551 5541 5531 5522 5514 5506 5499 5492 5486
5744 5742 5740 5737 5734 5731 5727 5723 5718 5713 5708 5702 5696 5689 5682 5674 5667 5659 5650 5641 5632 5622 5613 5602 5592 5581 5570 5559 5548 5538 5528 5519 5509 5501 5493 5485 5478 5472
5736 5735 5732 5730 5727 5723 5719 5715 5710 5705 5700 5694 5687 5680 5673 5665 5657 5649 5640 5631 5621 5611 5601 5591 5579 5568 5557 5546 5536 5526 5516 5506 5497 5489 5480 5473 5465 5459
5729 5727 5725 5722 5719 5715 5711 5707 5702 5697 5691 5686 5679 5672 5664 5656 5648 5639 5630 5620 5611 5600 5590 5579 5567 5556 5545 5534 5524 5514 5504 5495 5486 5477 5469 5461 5454 5447
5721 5719 5717 5714 5711 5707 5703 5699 5694 5689 5683 5677 5670 5663 5656 5647 5638 5629 5619 5609 5599 5588 5578 5567 5555 5544 5533 5523 5513 5503 5493 5484 5475 5467 5458 5450 5443 5437
5713 5711 5709 5706 5703 5700 5696 5691 5686 5681 5675 5669 5662 5655 5647 5638 5629 5620 5610 5599 5589 5577 5566 5555 5544 5533 5523 5512 5503 5493 5483 5473 5464 5456 5448 5440 5433 5426
5705 5703 5701 5698 5695 5692 5688 5683 5678 5673 5667 5660 5654 5646 5638 5629 5621 5611 5601 5591 5580 5568 5556 5545 5535 5524 5513 5502 5492 5482 5473 5464 5455 5446 5438 5430 5423 5416
5697 5695 5693 5690 5687 5684 5680 5675 5670 5665 5659 5653 5646 5638 5630 5621 5612 5601 5591 5583 5573 5562 5548 5535 5525 5514 5503 5493 5483 5473 5464 5455 5446 5438 5429 5422 5415 5408
5689 5687 5685 5683 5679 5676 5672 5667 5662 5656 5651 5645 5637 5629 5621 5613 5604 5593 5582 5570 5560 5550 5538 5526 5515 5504 5494 5483 5474 5464 5455 5447 5438 5430 5422 5415 5408 5401
5681 5679 5677 5674 5671 5668 5664 5659 5654 5649 5643 5637 5629 5621 5612 5603 5594 5583 5573 5562 5550 5539 5528 5518 5506 5495 5484 5474 5465 5456 5448 5439 5431 5423 5415 5408 5401 5395
5673 5671 5669 5667 5664 5660 5656 5652 5646 5641 5634 5627 5620 5612 5603 5594 5585 5575 5564 5554 5543 5531 5520 5509 5498 5487 5476 5466 5457 5449 5440 5432 5424 5416 5409 5402 5396 5391
5665 5663 5662 5659 5656 5652 5648 5644 5638 5633 5626 5619 5612 5604 5595 5586 5576 5567 5556 5545 5535 5524 5513 5501 5490 5480 5471 5460 5451 5442 5433 5425 5418 5410 5403 5397 5391 5387
5657 5655 5654 5651 5648 5644 5640 5636 5631 5625 5618 5611 5604 5596 5587 5578 5568 5558 5548 5537 5527 5515 5505 5494 5483 5472 5463 5454 5444 5435 5427 5419 5411 5404 5398 5393 5387 5383
5649 5647 5646 5643 5640 5637 5633 5628 5623 5617 5611 5603 5596 5588 5579 5570 5560 5550 5539 5529 5519 5508 5497 5486 5476 5467 5457 5448 5439 5430 5421 5414 5406 5400 5394 5388 5383 5379
5641 5640 5638 5635 5632 5629 5625 5620 5615 5609 5603 5596 5588 5580 5572 5563 5552 5542 5531 5521 5510 5500 5490 5479 5470 5460 5451 5442 5434 5425 5417 5409 5402 5396 5390 5385 5380 5375
5633 5632 5630 5628 5625 5621 5617 5613 5608 5602 5595 5588 5581 5573 5564 5555 5545 5535 5525 5514 5503 5492 5482 5473 5463 5454 5445 5436 5428 5420 5412 5405 5398 5392 5387 5382 5377 5372
5626 5624 5623 5620 5618 5614 5610 5605 5600 5594 5588 5581 5573 5565 5556 5547 5537 5527 5517 5507 5497 5487 5476 5466 5457 5448 5440 5431 5423 5415 5408 5401 5395 5389 5384 5379 5374 5370
5619 5617 5615 5613 5610 5607 5603 5598 5593 5587 5580 5573 5566 5558 5549 5540 5530 5520 5510 5500 5491 5481 5471 5461 5452 5443 5435 5427 5420 5412 5404 5398 5392 5386 5381 5376 5372 5368
5611 5610 5608 5606 5603 5599 5595 5591 5585 5579 5573 5566 5558 5550 5541 5532 5523 5513 5503 5494 5484 5475 5466 5457 5448 5439 5431 5423 5416 5409 5402 5395 5389 5384 5379 5374 5370 5366
5604 5603 5601 5598 5595 5592 5588 5583 5578 5572 5565 5558 5550 5542 5534 5525 5516 5507 5497 5488 5479 5470 5461 5452 5444 5435 5427 5420 5413 5406 5400 5393 5386 5381 5376 5372 5368 5364
5597 5595 5594 5591 5588 5585 5580 5575 5570 5564 5557 5550 5543 5535 5527 5518 5509 5500 5491 5482 5474 5465 5457 5448 5440 5432 5424 5416 5409 5403 5397 5391 5385 5379 5374 5370 5366 5362
5589 5588 5586 5584 5581 5577 5573 5568 5562 5557 5550 5543 5536 5528 5520 5512 5503 5494 5485 5477 5469 5461 5452 5444 5436 5428 5421 5414 5407 5400 5394 5389 5383 5378 5373 5369 5365 5361
5582 5581 5579 5576 5573 5569 5565 5560 5555 5549 5543 5536 5529 5522 5514 5505 5497 5488 5480 5472 5464 5456 5448 5440 5432 5425 5418 5411 5405 5398 5392 5387 5381 5377 5372 5368 5364 5360